TimeCST,TemperatureF,Dew PointF,Humidity,Sea Level PressureIn,VisibilityMPH,Wind Direction,Wind SpeedMPH,Gust SpeedMPH,PrecipitationIn,Events,Conditions,WindDirDegrees,DateUTC
12:15 AM,33.4,32.0,94,30.10,5.0,Calm,Calm,-,N/A,,Mostly Cloudy,0,2014-03-07 06:15:00
12:35 AM,34.5,32.4,92,30.10,0.2,Calm,Calm,-,N/A,Fog,Fog,0,2014-03-07 06:35:00
12:55 AM,35.6,33.4,92,30.11,0.2,Calm,Calm,-,N/A,Fog,Fog,0,2014-03-07 06:55:00
1:15 AM,35.2,33.3,92,30.11,0.2,Calm,Calm,-,N/A,Fog,Fog,0,2014-03-07 07:15:00
1:35 AM,34.3,32.4,92,30.11,0.2,Calm,Calm,-,N/A,Fog,Fog,0,2014-03-07 07:35:00
1:55 AM,34.7,32.9,93,30.11,0.5,Calm,Calm,-,N/A,Fog,Fog,0,2014-03-07 07:55:00
2:15 AM,33.8,32.0,93,30.10,0.5,Calm,Calm,-,N/A,Fog,Fog,0,2014-03-07 08:15:00
2:35 AM,33.4,32.0,94,30.09,0.2,Calm,Calm,-,N/A,Fog,Fog,0,2014-03-07 08:35:00
2:55 AM,32.9,31.6,95,30.08,0.2,Calm,Calm,-,N/A,Fog,Fog,0,2014-03-07 08:55:00
3:15 AM,32.4,31.1,95,30.07,0.5,Calm,Calm,-,N/A,Fog,Fog,0,2014-03-07 09:15:00
3:35 AM,32.0,30.7,95,30.07,0.8,Calm,Calm,-,N/A,,Mist,0,2014-03-07 09:35:00
3:55 AM,32.0,30.7,95,30.08,1.0,Calm,Calm,-,N/A,,Mist,0,2014-03-07 09:55:00
4:15 AM,32.0,30.2,93,30.07,2.5,Calm,Calm,-,N/A,,Clear,0,2014-03-07 10:15:00
4:35 AM,31.5,29.7,93,30.07,1.5,Calm,Calm,-,N/A,,Overcast,0,2014-03-07 10:35:00
4:55 AM,31.8,30.0,93,30.08,0.2,Calm,Calm,-,N/A,Fog,Fog,0,2014-03-07 10:55:00
5:15 AM,32.0,30.6,94,30.08,0.2,Calm,Calm,-,N/A,Fog,Fog,0,2014-03-07 11:15:00
5:35 AM,32.0,30.6,94,30.08,0.2,Calm,Calm,-,N/A,Fog,Fog,0,2014-03-07 11:35:00
5:55 AM,31.6,29.8,93,30.08,0.2,Calm,Calm,-,N/A,Fog,Light Freezing Fog,0,2014-03-07 11:55:00
6:15 AM,31.1,29.3,93,30.07,1.5,Calm,Calm,-,N/A,,Mist,0,2014-03-07 12:15:00
6:35 AM,30.9,28.9,92,30.08,2.5,Calm,Calm,-,N/A,,Mist,0,2014-03-07 12:35:00
6:55 AM,31.1,29.3,93,30.09,3.0,Calm,Calm,-,N/A,,Overcast,0,2014-03-07 12:55:00
7:15 AM,32.0,30.4,94,30.09,3.0,Calm,Calm,-,N/A,,Mostly Cloudy,0,2014-03-07 13:15:00
7:30 AM,32.9,31.5,94,30.10,2.5,Calm,Calm,-,N/A,,Mostly Cloudy,0,2014-03-07 13:30:00
7:55 AM,34.0,32.0,92,30.11,0.2,Calm,Calm,-,N/A,Fog,Fog,0,2014-03-07 13:55:00
8:15 AM,35.2,33.3,92,30.12,0.2,Calm,Calm,-,N/A,Fog,Fog,0,2014-03-07 14:15:00
8:35 AM,36.7,34.9,93,30.12,0.2,Calm,Calm,-,N/A,Fog,Fog,0,2014-03-07 14:35:00
8:55 AM,37.9,36.1,93,30.13,0.2,Calm,Calm,-,N/A,Fog,Fog,0,2014-03-07 14:55:00
9:15 AM,38.7,36.9,93,30.14,0.2,Calm,Calm,-,N/A,Fog,Fog,0,2014-03-07 15:15:00
9:35 AM,40.8,39.0,93,30.14,0.2,Calm,Calm,-,N/A,Fog,Fog,0,2014-03-07 15:35:00
9:55 AM,41.2,39.2,93,30.14,1.0,Calm,Calm,-,N/A,,Overcast,0,2014-03-07 15:55:00
10:15 AM,43.7,41.0,90,30.15,5.0,Calm,Calm,-,N/A,,Overcast,0,2014-03-07 16:15:00
10:35 AM,44.6,39.6,82,30.14,7.0,Calm,Calm,-,N/A,,Scattered Clouds,0,2014-03-07 16:35:00
10:55 AM,47.3,40.5,77,30.14,10.0,Calm,Calm,-,N/A,,Clear,0,2014-03-07 16:55:00
11:15 AM,49.5,40.6,72,30.13,10.0,Calm,Calm,-,N/A,,Clear,0,2014-03-07 17:15:00
11:35 AM,52.7,41.0,64,30.12,10.0,Calm,Calm,-,N/A,,Clear,0,2014-03-07 17:35:00
11:55 AM,53.6,41.9,65,30.11,10.0,Calm,Calm,-,N/A,,Clear,0,2014-03-07 17:55:00
12:10 PM,53.4,42.1,65,30.10,10.0,Calm,Calm,-,N/A,,Clear,0,2014-03-07 18:10:00
12:35 PM,54.5,41.7,62,30.09,10.0,Calm,Calm,-,N/A,,Clear,0,2014-03-07 18:35:00
12:55 PM,54.5,41.9,62,30.08,10.0,Calm,Calm,-,N/A,,Clear,0,2014-03-07 18:55:00
1:15 PM,55.9,41.5,58,30.07,10.0,Calm,Calm,-,N/A,,Clear,0,2014-03-07 19:15:00
1:35 PM,55.4,42.3,61,30.05,10.0,SE,3.5,-,N/A,,Clear,140,2014-03-07 19:35:00
1:55 PM,55.8,43.2,63,30.05,10.0,Calm,Calm,-,N/A,,Clear,0,2014-03-07 19:55:00
2:15 PM,57.6,42.8,58,30.04,10.0,Calm,Calm,-,N/A,,Clear,0,2014-03-07 20:15:00
2:35 PM,58.1,43.0,57,30.03,10.0,Calm,Calm,-,N/A,,Clear,0,2014-03-07 20:35:00
2:55 PM,58.5,43.2,57,30.03,10.0,South,5.8,-,N/A,,Clear,170,2014-03-07 20:55:00
3:15 PM,58.1,43.7,59,30.03,10.0,Calm,Calm,-,N/A,,Clear,0,2014-03-07 21:15:00
3:35 PM,58.1,43.7,59,30.02,10.0,Calm,Calm,-,N/A,,Clear,0,2014-03-07 21:35:00
3:55 PM,58.1,44.2,60,30.01,10.0,Calm,Calm,-,N/A,,Clear,0,2014-03-07 21:55:00
4:15 PM,58.3,43.9,59,30.01,10.0,Calm,Calm,-,N/A,,Clear,0,2014-03-07 22:15:00
4:35 PM,57.4,44.2,62,30.00,10.0,Calm,Calm,-,N/A,,Clear,0,2014-03-07 22:35:00
4:55 PM,57.2,44.6,63,30.00,10.0,Calm,Calm,-,N/A,,Clear,0,2014-03-07 22:55:00
5:15 PM,57.2,45.1,64,30.00,10.0,Calm,Calm,-,N/A,,Clear,0,2014-03-07 23:15:00
5:35 PM,56.3,45.1,66,30.01,10.0,Calm,Calm,-,N/A,,Clear,0,2014-03-07 23:35:00
5:55 PM,55.6,45.0,67,30.01,10.0,Calm,Calm,-,N/A,,Clear,0,2014-03-07 23:55:00
6:15 PM,54.5,45.0,70,30.01,10.0,Calm,Calm,-,N/A,,Clear,0,2014-03-08 00:15:00
6:35 PM,53.2,44.8,73,30.02,10.0,Calm,Calm,-,N/A,,Clear,0,2014-03-08 00:35:00
6:55 PM,52.0,44.6,76,30.02,10.0,Calm,Calm,-,N/A,,Clear,0,2014-03-08 00:55:00
7:15 PM,51.8,44.6,76,30.03,10.0,Calm,Calm,-,N/A,,Clear,0,2014-03-08 01:15:00
7:35 PM,49.3,43.5,81,30.02,10.0,Calm,Calm,-,N/A,,Clear,0,2014-03-08 01:35:00
7:55 PM,49.6,44.2,82,30.02,10.0,Calm,Calm,-,N/A,,Clear,0,2014-03-08 01:55:00
8:15 PM,50.2,44.2,80,30.03,10.0,Calm,Calm,-,N/A,,Clear,0,2014-03-08 02:15:00
8:35 PM,46.9,42.6,85,30.03,10.0,Calm,Calm,-,N/A,,Clear,0,2014-03-08 02:35:00
8:55 PM,45.7,42.3,88,30.04,10.0,Calm,Calm,-,N/A,,Clear,0,2014-03-08 02:55:00
9:15 PM,46.0,42.8,88,30.04,10.0,Calm,Calm,-,N/A,,Clear,0,2014-03-08 03:15:00
9:35 PM,46.4,43.2,88,30.03,10.0,Calm,Calm,-,N/A,,Clear,0,2014-03-08 03:35:00
9:55 PM,46.8,42.8,86,30.03,10.0,Calm,Calm,-,N/A,,Clear,0,2014-03-08 03:55:00
10:15 PM,47.3,43.7,87,30.04,10.0,Calm,Calm,-,N/A,,Clear,0,2014-03-08 04:15:00
10:35 PM,44.8,41.5,88,30.03,7.0,Calm,Calm,-,N/A,,Clear,0,2014-03-08 04:35:00
10:55 PM,43.7,41.4,91,30.04,5.0,Calm,Calm,-,N/A,,Clear,0,2014-03-08 04:55:00
11:15 PM,44.8,42.3,91,30.03,5.0,Calm,Calm,-,N/A,,Clear,0,2014-03-08 05:15:00
11:35 PM,43.9,41.2,90,30.03,5.0,Calm,Calm,-,N/A,,Clear,0,2014-03-08 05:35:00
11:55 PM,43.3,40.8,91,30.03,5.0,Calm,Calm,-,N/A,,Clear,0,2014-03-08 05:55:00